Weather History for PAVL - January, 2013

Change the Weather History Date:

Tuesday, January 29, 2013

  Actual Average Record
Temperature  
Mean Temperature -10 °F -  
Max Temperature -4 °F - - ()
Min Temperature -17 °F - - ()
Degree Days  
Heating Degree Days 76    
Moisture  
Dew Point -20 °F    
Average Humidity 59    
Maximum Humidity 67    
Minimum Humidity 51    
Precipitation  
Precipitation 0.00 in - - ()
Sea Level Pressure  
Sea Level Pressure 30.06 in    
Wind  
Wind Speed 10 mph (NNE)    
Max Wind Speed 18 mph    
Max Gust Speed -    
Visibility 10 miles    
Events      
T = Trace of Precipitation, MM = Missing Value Source: NWS Daily Summary

Daily Weather History Graph

Daily Weather History Graph

Search for Another Location

Airport or City:

Trip Planner

Search our weather history database for the weather conditions in past years. The results will help you decide how hot, cold, wet, or windy it might be!

Date:

Astronomy

Jan. 29, 2013 Rise Set
Actual Time 11:22 AM AKST 5:01 PM AKST
Civil Twilight 10:09 AM AKST 6:14 PM AKST
Nautical Twilight 8:58 AM AKST 7:25 PM AKST
Astronomical Twilight 7:54 AM AKST 8:29 PM AKST
Moon 10:18 PM AKST (1/29) 10:31 AM AKST (1/29)
Length of Visible Light 8h 05m
Length of Day
5h 39m
Waning Gibbous, 93% of the Moon is Illuminated
Jan 29
Waning Gibbous
Feb 3
Last Quarter
Feb 9
New
Feb 17
First Quarter
Feb 25
Full

Hourly Weather History & Observations

Time (AKST) Temp. Windchill Dew Point Humidity Pressure Visibility Wind Dir Wind Speed Gust Speed Precip Events Conditions
12:53 AM -5.1 °F -25.9 °F -17.0 °F 57% 30.29 in 10.0 mi NE 15.0 mph - N/A   Clear
1:53 AM -4.0 °F -26.4 °F -17.0 °F 54% 30.27 in 10.0 mi NE 18.4 mph - N/A   Clear
3:53 AM -9.0 °F -28.4 °F -20.0 °F 59% 30.21 in 10.0 mi NE 11.5 mph - N/A   Clear
4:53 AM -9.0 °F - -20.0 °F 59% 30.19 in 10.0 mi Calm Calm - N/A   Clear
5:53 AM -6.0 °F -14.7 °F -18.9 °F 54% 30.17 in 10.0 mi North 3.5 mph - N/A   Clear
6:53 AM -11.0 °F -27.6 °F -22.0 °F 58% 30.16 in 10.0 mi NNE 8.1 mph - N/A   Clear
7:53 AM -11.9 °F -29.9 °F -20.9 °F 64% 30.13 in 10.0 mi NNE 9.2 mph - N/A   Clear
8:53 AM -9.0 °F -22.3 °F -20.0 °F 59% 30.12 in 10.0 mi NNE 5.8 mph - N/A   Clear
9:53 AM -17.0 °F -34.8 °F -25.1 °F 67% 30.09 in 10.0 mi North 8.1 mph - N/A   Clear
10:53 AM -11.9 °F -29.9 °F -22.0 °F 61% 30.08 in 10.0 mi NNE 9.2 mph - N/A   Clear
11:53 AM -15.0 °F -31.0 °F -24.0 °F 64% 30.06 in 10.0 mi NNE 6.9 mph - N/A   Clear
12:53 PM -9.0 °F -27.4 °F -20.0 °F 59% 30.04 in 10.0 mi NE 10.4 mph - N/A   Clear
1:53 PM -6.0 °F - -18.9 °F 54% 30.03 in 10.0 mi Calm Calm - N/A   Clear
2:53 PM -5.1 °F -15.8 °F -18.9 °F 51% 30.02 in 10.0 mi NNE 4.6 mph - N/A   Clear
3:53 PM -9.0 °F -25.2 °F -20.9 °F 56% 30.00 in 10.0 mi NNE 8.1 mph - N/A   Clear
4:53 PM -13.0 °F -34.3 °F -23.1 °F 61% 29.99 in 10.0 mi NNE 12.7 mph - N/A   Clear
5:53 PM -11.0 °F -29.9 °F -22.0 °F 58% 29.97 in 10.0 mi NNE 10.4 mph - N/A   Clear
6:53 PM -9.0 °F -30.9 °F -20.9 °F 56% 29.96 in 10.0 mi NE 15.0 mph - N/A   Clear
7:53 PM -9.9 °F -33.5 °F -20.9 °F 59% 29.94 in 10.0 mi NNE 17.3 mph - N/A   Clear
8:53 PM -9.9 °F -30.5 °F -20.0 °F 61% 29.94 in 10.0 mi NNE 12.7 mph - N/A   Clear
9:53 PM -7.1 °F -19.9 °F -18.9 °F 56% 29.93 in 10.0 mi NE 5.8 mph - N/A   Clear
10:53 PM -6.0 °F -25.5 °F -17.0 °F 59% 29.92 in 10.0 mi NNE 12.7 mph - N/A   Clear
11:53 PM -7.1 °F -25.0 °F -17.0 °F 62% 29.91 in 10.0 mi NNE 10.4 mph - N/A   Clear